{"data":{"norad_id":68722,"intl_designator":"2026-081Z","name":"STARLINK-37271","alt_names":[],"object_type":"PAYLOAD","status":"ACTIVE","operator":null,"country":"US","launch_date":"2026-04-14","launch_site_code":"AFETR","launch_vehicle":null,"mission":null,"orbit_class":"UNKNOWN","rcs_meters":null,"size_class":null,"mass_kg":null,"dimensions":null,"purposes":["comms"],"wikipedia_slug":null,"has_3d_model":false,"image_url":null,"decayed_at":null,"tle_current":{"epoch":"2026-09-19T11:23:07.468800Z","epoch_age_seconds":129957,"freshness":"FRESH","line1":"1 68722U 26081Z   26262.47439200  .00016471  00000+0  49734-3 0  9997","line2":"2 68722  53.1561 210.3148 0002141 101.3860 258.7383 15.34412018 24465","mean_motion":15.34412018,"eccentricity":0.0002141,"inclination_deg":53.1561,"raan_deg":210.3148,"arg_perigee_deg":101.386,"mean_anomaly_deg":258.7383,"bstar":0.00049734,"rev_number":2446,"period_min":93.847023036025,"perigee_km":461.20290416375,"apogee_km":464.13213665939,"semimajor_km":6840.8045204116,"source":"CELESTRAK","updated_at":"2026-09-20T09:00:43.986983Z"}}}